Hourly Data Report for June 28, 2020

BORDEN AWOS
ONTARIO
Current Station Operator: DND

44°16'20.000" N
79°54'42.000" W
222.50 m
611B002
71534
YBN

Download Data

Hourly Data (June 2020)
Hourly Data Report for June 28, 2020
TIME
LST
Temp Definition
°C
Dew Point Definition
°C
Rel Hum Definition
%
Precip. Amount Definition
mm

Wind Dir Definition
10's deg

Wind Spd Definition
km/h
Visibility Definition
km
Stn Press Definition
kPa
Hmdx Definition


Wind Chill Definition


Weather Definition


00:00 17.0 15.8 93   23 13 14.5 98.00     LegendNANA
01:00 16.1 15.0 93     0 14.5 97.98     LegendNANA
02:00 14.4 13.9 97   28 4 14.5 97.98     LegendNANA
03:00 13.5 13.1 97     0 14.5 98.02     LegendNANA
04:00
05:00
06:00 15.9 15.3 96     0 14.5 98.16     LegendNANA
07:00 18.4 16.2 87   35 9 14.5 98.21     LegendNANA
08:00 20.6 17.1 80   35 17 14.5 98.25 26   LegendNANA
09:00 21.6 17.4 77   34 15 14.5 98.28 27   LegendNANA
10:00 24.2 16.8 63   34 11 14.5 98.28 29   LegendNANA
11:00 24.9 16.5 60   33 19 14.5 98.28 30   LegendNANA
12:00 24.8 15.5 56   35 22 14.5 98.32 29   LegendNANA
13:00 25.5 15.1 53   33 20 14.5 98.32 30   LegendNANA
14:00 26.1 15.0 50   32 17 14.5 98.33 30   LegendNANA
15:00 25.8 15.0 51   33 22 14.5 98.33 30   LegendNANA
16:00 26.2 14.9 50   34 17 14.5 98.35 30   LegendNANA
17:00 25.1 14.4 52   33 17 14.5 98.38 29   LegendNANA
18:00 24.3 15.3 57   33 13 14.5 98.39 28   LegendNANA
19:00 23.1 15.6 63   34 15 14.5 98.39 27   LegendNANA
20:00 21.2 15.5 70     0 14.5 98.45 25   LegendNANA
21:00 19.1 14.8 76   33 4 14.5 98.50     LegendNANA
22:00 16.4 14.5 89     0 14.5 98.56     LegendNANA
23:00 16.4 14.5 89     0 14.5 98.58     LegendNANA

Notes on Data Quality.

Legend

  • E = Estimated
  • M = Missing
  • NA = Not Available*
  • [empty] = Indicates an unobserved value
Date modified: